FW1714 Weather Reports


Display with metric or nautical units.
time (UTC)temp
F
wind
direction
speed
MPH
gust
MPH
rain 1hr
in
rain 24hr
in
rain mn
in
humidity
%
barometer
mb
20260505022328 52 360 0.0 2.0 0.02 0.02 0.02 73 1024.0
20260505021825 52 360 0.0 2.0 0.01 0.01 0.01 72 1023.8
20260505021329 52 360 0.0 3.0 0.01 0.01 0.01 70 1023.7
20260505020825 52 360 1.0 3.0 0.00 0.00 0.00 70 1023.6
20260505020328 53 360 0.0 1.0 0.00 0.00 0.00 67 1023.5
20260505015824 53 360 0.0 1.0 0.00 0.00 0.00 66 1023.6
20260505015316 53 360 0.0 0.0 0.00 0.00 0.00 65 1023.5
20260505014814 53 360 0.0 0.0 0.00 0.00 0.00 62 1023.4
20260505014326 53 360 0.0 1.0 0.00 0.00 0.00 62 1023.5
20260505013824 53 360 0.0 2.0 0.00 0.00 0.00 62 1023.3
20260505013320 54 360 0.0 2.0 0.00 0.00 0.00 61 1023.2
20260505012836 54 360 0.0 2.0 0.00 0.00 0.00 61 1023.1
20260505012318 54 360 0.0 3.0 0.00 0.00 0.00 60 1023.2
20260505011815 55 360 1.0 4.0 0.00 0.00 0.00 60 1023.1
20260505011318 56 360 1.0 5.0 0.00 0.00 0.00 56 1023.1
20260505010813 57 360 1.0 6.0 0.00 0.00 0.00 54 1023.0
20260505010317 57 360 2.0 6.0 0.00 0.00 0.00 52 1023.1
20260505005813 58 360 0.0 1.0 0.00 0.00 0.00 50 1022.8
20260505005346 58 360 0.0 1.0 0.00 0.00 0.00 51 1022.8
20260505004821 58 360 0.0 2.0 0.00 0.00 0.00 50 1022.8
20260505004313 58 360 1.0 2.0 0.00 0.00 0.00 50 1022.6
20260505003831 58 321 0.0 2.0 0.00 0.00 0.00 50 1022.7
20260505003323 58 321 0.0 2.0 0.00 0.00 0.00 50 1022.7
20260505002819 58 322 0.0 5.0 0.00 0.00 0.00 52 1022.7
20260505002325 58 321 2.0 5.0 0.00 0.00 0.00 51 1022.7
20260505001822 58 329 1.0 4.0 0.00 0.00 0.00 52 1022.9
20260505001326 59 315 1.0 4.0 0.00 0.00 0.00 54 1022.7
20260505000822 58 304 0.0 2.0 0.00 0.00 0.00 53 1022.7
20260505000325 58 302 0.0 2.0 0.00 0.00 0.00 49 1022.7
20260504235821 58 302 0.0 2.0 0.00 0.00 0.00 50 1022.6
20260504235313 58 301 0.0 0.0 0.00 0.00 0.00 52 1022.6
20260504234830 57 301 0.0 0.0 0.00 0.00 0.00 55 1022.5
20260504234343 57 302 0.0 0.0 0.00 0.00 0.00 56 1022.7
20260504233819 57 302 0.0 0.0 0.00 0.00 0.00 55 1022.6
20260504233333 57 301 0.0 0.0 0.00 0.00 0.00 55 1022.6
20260504232829 57 301 0.0 0.0 0.00 0.00 0.00 57 1022.7
20260504232351 57 301 0.0 0.0 0.00 0.00 0.00 57 1022.6
20260504231827 57 301 0.0 0.0 0.00 0.00 0.00 55 1022.6
20260504231335 56 301 0.0 1.0 0.00 0.00 0.00 55 1022.4
20260504230830 56 279 0.0 1.0 0.00 0.00 0.00 56 1022.4
20260504230313 56 360 0.0 0.0 0.00 0.00 0.00 58 1022.4
20260504225829 56 360 0.0 1.0 0.00 0.00 0.00 56 1022.4
20260504225322 56 360 0.0 3.0 0.00 0.00 0.00 58 1022.6
20260504224820 56 360 0.0 4.0 0.00 0.00 0.00 61 1022.6
20260504224333 57 360 1.0 12.0 0.00 0.00 0.00 54 1022.8
20260504223828 58 360 4.0 12.0 0.00 0.00 0.00 50 1022.9
20260504223321 60 360 6.0 12.0 0.00 0.00 0.00 43 1023.0
20260504222819 60 360 0.0 5.0 0.00 0.00 0.00 39 1022.9
20260504222322 60 360 1.0 8.0 0.00 0.00 0.00 40 1023.0
20260504221837 60 360 3.0 8.0 0.00 0.00 0.00 39 1022.9
20260504221319 61 340 2.0 5.0 0.00 0.00 0.00 40 1022.7
20260504220815 61 360 0.0 4.0 0.00 0.00 0.00 40 1022.4
20260504220323 61 360 2.0 4.0 0.00 0.00 0.00 40 1021.9
20260504215820 61 119 0.0 4.0 0.00 0.00 0.00 41 1021.7
20260504215332 62 119 1.0 5.0 0.00 0.00 0.00 40 1021.3
20260504214828 62 52 1.0 5.0 0.00 0.00 0.00 40 1021.3
20260504214340 62 331 1.0 7.0 0.00 0.00 0.00 41 1021.3
20260504213836 62 197 2.0 7.0 0.00 0.00 0.00 40 1021.4
20260504213327 62 87 1.0 8.0 0.00 0.00 0.00 39 1021.5
20260504212825 63 94 2.0 8.0 0.00 0.00 0.00 38 1021.5
20260504212348 64 108 2.0 8.0 0.00 0.00 0.00 37 1021.5
20260504211823 64 319 2.0 8.0 0.00 0.00 0.00 35 1021.5
20260504211326 65 355 1.0 8.0 0.00 0.00 0.00 34 1021.3
20260504210823 65 75 2.0 8.0 0.00 0.00 0.00 33 1021.3
20260504210327 65 71 2.0 15.0 0.00 0.00 0.00 34 1021.4
20260504205823 65 82 2.0 15.0 0.00 0.00 0.00 33 1021.4
20260504205317 65 82 4.0 13.0 0.00 0.00 0.00 33 1021.6
20260504204854 66 94 3.0 17.0 0.00 0.00 0.00 30 1021.6
20260504204345 68 126 3.0 17.0 0.00 0.00 0.00 26 1021.6
20260504203825 69 87 2.0 8.0 0.00 0.00 0.00 25 1021.0
20260504203338 69 184 0.0 6.0 0.00 0.00 0.00 25 1020.8
20260504202815 69 146 1.0 8.0 0.00 0.00 0.00 25 1020.9
20260504202317 68 239 2.0 12.0 0.00 0.00 0.00 24 1020.8
20260504201814 67 223 4.0 12.0 0.00 0.00 0.00 24 1020.7
20260504201337 67 239 5.0 13.0 0.00 0.00 0.00 25 1020.6
20260504200834 67 194 6.0 13.0 0.00 0.00 0.00 26 1020.8
20260504200316 67 217 7.0 13.0 0.00 0.00 0.00 25 1020.9
20260504195833 68 229 7.0 20.0 0.00 0.00 0.00 25 1020.8
20260504195346 68 196 7.0 20.0 0.00 0.00 0.00 25 1020.8
20260504194822 68 230 7.0 15.0 0.00 0.00 0.00 25 1020.9
20260504194315 68 223 7.0 16.0 0.00 0.00 0.00 23 1020.9
20260504193832 69 221 8.0 16.0 0.00 0.00 0.00 21 1021.0
20260504193345 70 179 7.0 14.0 0.00 0.00 0.00 19 1020.8
20260504192822 70 175 9.0 14.0 0.00 0.00 0.00 19 1020.6
20260504192324 70 175 3.0 9.0 0.00 0.00 0.00 20 1020.6
20260504191820 70 213 3.0 7.0 0.00 0.00 0.00 21 1020.5
20260504191324 70 150 1.0 6.0 0.00 0.00 0.00 22 1020.6
20260504190824 70 309 2.0 13.0 0.00 0.00 0.00 20 1020.8
20260504190327 70 261 4.0 13.0 0.00 0.00 0.00 20 1020.7
20260504185825 70 192 4.0 6.0 0.00 0.00 0.00 22 1020.6
20260504185318 70 300 3.0 6.0 0.00 0.00 0.00 20 1020.7
20260504184816 70 274 2.0 8.0 0.00 0.00 0.00 19 1020.6
20260504184330 70 320 2.0 8.0 0.00 0.00 0.00 19 1020.8
20260504183826 70 224 3.0 7.0 0.00 0.00 0.00 21 1020.8
20260504183318 70 199 3.0 10.0 0.00 0.00 0.00 20 1020.9
20260504182816 70 260 3.0 11.0 0.00 0.00 0.00 21 1020.9
20260504182319 69 317 2.0 13.0 0.00 0.00 0.00 23 1021.1
20260504181815 69 275 5.0 13.0 0.00 0.00 0.00 24 1021.1
20260504181337 69 257 5.0 10.0 0.00 0.00 0.00 23 1021.3
20260504180817 69 277 5.0 10.0 0.00 0.00 0.00 23 1021.4
20260504180340 69 203 5.0 11.0 0.00 0.00 0.00 23 1021.5
20260504175816 68 314 3.0 15.0 0.00 0.00 0.00 25 1021.6
20260504175329 68 321 6.0 13.0 0.00 0.00 0.00 25 1021.7
20260504174825 68 268 5.0 11.0 0.00 0.00 0.00 25 1022.0
20260504174318 68 355 4.0 10.0 0.00 0.00 0.00 25 1022.0
20260504173816 68 246 4.0 13.0 0.00 0.00 0.00 25 1022.2
20260504173350 67 191 7.0 16.0 0.00 0.00 0.00 25 1022.3
20260504172825 67 247 7.0 16.0 0.00 0.00 0.00 25 1022.3
20260504172327 66 245 3.0 12.0 0.00 0.00 0.00 27 1022.5
20260504171825 65 213 5.0 10.0 0.00 0.00 0.00 27 1022.4
20260504171328 65 43 4.0 10.0 0.00 0.00 0.00 27 1022.5
20260504170825 65 280 6.0 10.0 0.00 0.00 0.00 27 1022.7
20260504170349 65 255 3.0 12.0 0.00 0.00 0.00 27 1022.6
20260504160322 63 238 3.0 10.0 0.00 0.00 0.00 28 1022.3
20260504150852 62 285 6.0 11.0 0.00 0.00 0.00 27 1022.5
20260504150330 62 260 3.0 8.0 0.00 0.00 0.00 27 1022.6
20260504141324 62 144 2.0 6.0 0.00 0.00 0.00 25 1023.0
20260504140822 62 140 3.0 6.0 0.00 0.00 0.00 25 1022.8
20260504140323 62 213 0.0 1.0 0.00 0.00 0.00 24 1022.9
20260504130813 59 360 4.0 15.0 0.00 0.00 0.00 25 1022.5
20260504130336 56 360 5.0 11.0 0.00 0.00 0.00 28 1022.4
20260504110317 44 360 0.0 3.0 0.00 0.00 0.00 46 1022.3
20260504100313 43 360 0.0 1.0 0.00 0.00 0.00 47 1022.6
20260504081819 45 360 0.0 0.0 0.00 0.00 0.00 45 1023.3
20260504081322 45 360 0.0 0.0 0.00 0.00 0.00 44 1023.5
20260504080820 45 360 0.0 0.0 0.00 0.00 0.00 44 1023.5
20260504080323 46 360 0.0 0.0 0.00 0.00 0.00 44 1023.5
20260504070318 48 360 0.0 0.0 0.00 0.00 0.00 40 1024.0
20260504050324 62 360 3.0 9.0 0.00 0.00 0.00 24 1024.0
20260504045840 62 360 4.0 8.0 0.00 0.00 0.00 23 1024.0
20260504045332 63 244 2.0 8.0 0.00 0.00 0.00 23 1024.0
20260504044849 63 229 4.0 10.0 0.00 0.00 0.00 23 1024.0
20260504044341 63 360 5.0 10.0 0.00 0.00 0.00 24 1024.1
20260504043818 63 257 4.0 9.0 0.00 0.00 0.00 23 1024.2
20260504043332 63 360 3.0 9.0 0.00 0.00 0.00 23 1024.1
20260504042830 63 360 3.0 6.0 0.00 0.00 0.00 23 1024.2
20260504042332 63 360 3.0 8.0 0.00 0.00 0.00 23 1024.1
20260504041830 63 244 4.0 9.0 0.00 0.00 0.00 23 1024.2
20260504041332 63 258 3.0 10.0 0.00 0.00 0.00 24 1024.3
20260504040828 64 267 5.0 10.0 0.00 0.00 0.00 24 1024.4
20260504040315 64 245 4.0 9.0 0.00 0.00 0.00 24 1024.3
20260504035832 64 215 5.0 15.0 0.00 0.00 0.00 24 1024.4
20260504035325 64 265 6.0 13.0 0.00 0.00 0.00 24 1024.4
20260504034823 64 360 4.0 13.0 0.00 0.00 0.00 24 1024.5
20260504034316 64 360 4.0 10.0 0.00 0.00 0.00 24 1024.5
20260504033853 64 360 4.0 9.0 0.00 0.00 0.00 24 1024.5
20260504033325 64 360 5.0 11.0 0.00 0.00 0.00 24 1024.5
20260504032823 64 258 5.0 14.0 0.00 0.00 0.00 24 1024.5
20260504032326 64 271 6.0 14.0 0.00 0.00 0.00 24 1024.6
20260504031823 64 238 6.0 11.0 0.00 0.00 0.00 24 1024.5
20260504031325 64 246 5.0 11.0 0.00 0.00 0.00 24 1024.5
20260504030823 64 221 7.0 11.0 0.00 0.00 0.00 24 1024.4
20260504030346 65 239 5.0 12.0 0.00 0.00 0.00 24 1024.4
20260504025822 65 174 6.0 12.0 0.00 0.00 0.00 24 1024.5
20260504025320 65 196 5.0 10.0 0.00 0.00 0.00 23 1024.4
20260504024816 65 360 5.0 10.0 0.00 0.00 0.00 23 1024.5
20260504024330 65 248 3.0 9.0 0.00 0.00 0.00 22 1024.5
20260504023827 66 219 3.0 6.0 0.00 0.00 0.00 22 1024.3
20260504023320 66 241 2.0 8.0 0.00 0.00 0.00 22 1024.4
20260504022817 66 213 4.0 8.0 0.00 0.00 0.00 21 1024.4